When you browse on this site, cookies collect data to enhance your experience and personalize the content and advertising you see.
Visit our Privacy Policy to learn more. By continuing to use the site, you agree to this use of cookies and data.

Hourly Weather Berat

Today, 29 September, Tuesday

Time Temperature Precipitation Wind Pressure Humidity
00:00 +18°C° 1.3 mm 3 mps 743 mmHg 83%
01:00 +18°C° 0 mm 3 mps 743 mmHg 83%
02:00 +17°C° 1.2 mm 2 mps 743 mmHg 83%
03:00 +17°C° 1.2 mm 2 mps 743 mmHg 83%
04:00 +18°C° 1.2 mm 1 mps 743 mmHg 83%
05:00 +18°C° 0.4 mm 1 mps 743 mmHg 82%
06:00 +18°C° 0.4 mm 1 mps 743 mmHg 80%
07:00 +19°C° 0.4 mm 1 mps 744 mmHg 78%
08:00 +19°C° 0.8 mm 2 mps 744 mmHg 74%
09:00 +19°C° 0.8 mm 2 mps 744 mmHg 70%
10:00 +20°C° 0.8 mm 3 mps 744 mmHg 66%
11:00 +21°C° 0.8 mm 3 mps 744 mmHg 65%
12:00 +21°C° 0.8 mm 3 mps 744 mmHg 65%
13:00 +21°C° 0.8 mm 4 mps 744 mmHg 64%
14:00 +20°C° 0.4 mm 4 mps 744 mmHg 67%
15:00 +20°C° 0.4 mm 3 mps 744 mmHg 69%
16:00 +19°C° 0.4 mm 3 mps 743 mmHg 71%
17:00 +18°C° 0.1 mm 2 mps 744 mmHg 75%
18:00 +17°C° 0.1 mm 2 mps 744 mmHg 80%
19:00 +16°C° 0.1 mm 1 mps 744 mmHg 84%
20:00 +16°C° 0 mm 1 mps 744 mmHg 85%
21:00 +16°C° 0 mm 1 mps 744 mmHg 85%
22:00 +15°C° 0 mm 1 mps 745 mmHg 85%
23:00 +15°C° 0 mm 1 mps 744 mmHg 85%

Tomorrow, 30 September, Wednesday

Time Temperature Precipitation Wind Pressure Humidity
00:00 +15°C° 0 mm 1 mps 744 mmHg 85%
01:00 +15°C° 0 mm 1 mps 744 mmHg 84%
02:00 +15°C° 0 mm 1 mps 744 mmHg 84%
03:00 +15°C° 0 mm 1 mps 744 mmHg 84%
04:00 +15°C° 0 mm 1 mps 743 mmHg 84%
05:00 +15°C° 0 mm 1 mps 743 mmHg 82%
06:00 +16°C° 0 mm 1 mps 743 mmHg 80%
07:00 +16°C° 0 mm 1 mps 743 mmHg 78%
08:00 +19°C° 0 mm 1 mps 743 mmHg 73%
09:00 +19°C° 0 mm 2 mps 743 mmHg 67%
10:00 +20°C° 0 mm 2 mps 743 mmHg 62%
11:00 +21°C° 0 mm 2 mps 743 mmHg 60%
12:00 +21°C° 0 mm 3 mps 742 mmHg 57%
13:00 +22°C° 0 mm 3 mps 742 mmHg 55%
14:00 +21°C° 0 mm 3 mps 741 mmHg 57%
15:00 +21°C° 0 mm 3 mps 741 mmHg 59%
16:00 +20°C° 0 mm 3 mps 741 mmHg 62%
17:00 +19°C° 0 mm 2 mps 741 mmHg 67%
18:00 +19°C° 0 mm 1 mps 741 mmHg 73%
19:00 +18°C° 0 mm 1 mps 741 mmHg 78%
20:00 +16°C° 0 mm 1 mps 741 mmHg 79%
21:00 +16°C° 0 mm 1 mps 741 mmHg 80%
22:00 +15°C° 0 mm 0 mps 741 mmHg 81%
23:00 +14°C° 0 mm 0 mps 741 mmHg 81%

Day after tomorrow, 1 October, Thursday

Time Temperature Precipitation Wind Pressure Humidity
00:00 +14°C° 0 mm 0 mps 741 mmHg 81%
01:00 +14°C° 0 mm 0 mps 740 mmHg 81%
02:00 +13°C° 0 mm 0 mps 740 mmHg 81%
03:00 +14°C° 0 mm 1 mps 740 mmHg 81%
04:00 +14°C° 0 mm 1 mps 740 mmHg 81%
05:00 +15°C° 0 mm 1 mps 740 mmHg 78%
06:00 +15°C° 0 mm 1 mps 740 mmHg 75%
07:00 +16°C° 0 mm 1 mps 740 mmHg 72%
08:00 +19°C° 0 mm 1 mps 740 mmHg 65%
09:00 +20°C° 0 mm 1 mps 740 mmHg 59%
10:00 +21°C° 0 mm 2 mps 740 mmHg 52%
11:00 +21°C° 0 mm 2 mps 740 mmHg 50%
12:00 +23°C° 0 mm 2 mps 740 mmHg 47%
13:00 +22°C° 0 mm 3 mps 740 mmHg 44%
14:00 +22°C° 0 mm 3 mps 739 mmHg 48%
15:00 +22°C° 0 mm 3 mps 739 mmHg 51%
16:00 +21°C° 0 mm 3 mps 739 mmHg 54%
17:00 +20°C° 0 mm 2 mps 740 mmHg 61%
18:00 +19°C° 0 mm 1 mps 740 mmHg 67%
19:00 +16°C° 0 mm 0 mps 740 mmHg 74%
20:00 +18°C° 0 mm 1 mps 740 mmHg 74%
21:00 +18°C° 0 mm 1 mps 741 mmHg 73%
22:00 +16°C° 0 mm 1 mps 741 mmHg 73%
23:00 +16°C° 0 mm 1 mps 741 mmHg 72%

2 October, Friday

Time Temperature Precipitation Wind Pressure Humidity
00:00 +16°C° 0 mm 1 mps 741 mmHg 71%
01:00 +16°C° 0 mm 1 mps 741 mmHg 69%
02:00 +16°C° 0 mm 1 mps 741 mmHg 70%
03:00 +16°C° 0 mm 1 mps 741 mmHg 70%
04:00 +15°C° 0 mm 1 mps 741 mmHg 71%
05:00 +16°C° 0 mm 1 mps 741 mmHg 70%
06:00 +18°C° 0 mm 1 mps 741 mmHg 68%
07:00 +18°C° 0 mm 2 mps 741 mmHg 67%
08:00 +21°C° 0 mm 1 mps 741 mmHg 60%
09:00 +23°C° 0 mm 1 mps 741 mmHg 53%
10:00 +24°C° 0 mm 1 mps 741 mmHg 46%
11:00 +25°C° 0 mm 2 mps 741 mmHg 43%
12:00 +26°C° 0 mm 2 mps 741 mmHg 40%
13:00 +27°C° 0 mm 2 mps 741 mmHg 38%
14:00 +27°C° 0 mm 2 mps 741 mmHg 40%
15:00 +26°C° 0 mm 2 mps 741 mmHg 42%
16:00 +26°C° 0 mm 2 mps 741 mmHg 44%
17:00 +24°C° 0 mm 2 mps 742 mmHg 50%
18:00 +21°C° 0 mm 2 mps 742 mmHg 56%
19:00 +20°C° 0 mm 2 mps 742 mmHg 63%
20:00 +19°C° 0 mm 2 mps 742 mmHg 63%
21:00 +19°C° 0 mm 2 mps 743 mmHg 64%
22:00 +19°C° 0 mm 2 mps 743 mmHg 64%
23:00 +19°C° 0 mm 2 mps 743 mmHg 65%

3 October, Saturday

Time Temperature Precipitation Wind Pressure Humidity
00:00 +18°C° 0 mm 2 mps 743 mmHg 65%
01:00 +18°C° 0 mm 2 mps 743 mmHg 66%
02:00 +18°C° 0 mm 2 mps 743 mmHg 66%
03:00 +18°C° 0 mm 2 mps 743 mmHg 66%
04:00 +17°C° 0 mm 2 mps 743 mmHg 66%
05:00 +18°C° 0 mm 2 mps 743 mmHg 63%
06:00 +19°C° 0 mm 2 mps 743 mmHg 60%
07:00 +20°C° 0 mm 2 mps 743 mmHg 57%
08:00 +23°C° 0 mm 2 mps 743 mmHg 50%
09:00 +26°C° 0 mm 2 mps 743 mmHg 44%
10:00 +28°C° 0 mm 2 mps 743 mmHg 37%
11:00 +29°C° 0 mm 2 mps 743 mmHg 35%
12:00 +30°C° 0 mm 2 mps 743 mmHg 33%
13:00 +33°C° 0 mm 3 mps 743 mmHg 32%
14:00 +31°C° 0 mm 3 mps 743 mmHg 36%
15:00 +30°C° 0 mm 2 mps 743 mmHg 40%
16:00 +29°C° 0 mm 2 mps 742 mmHg 44%
17:00 +28°C° 0 mm 2 mps 743 mmHg 48%
18:00 +26°C° 0 mm 2 mps 743 mmHg 52%
19:00 +24°C° 0 mm 2 mps 743 mmHg 57%
20:00 +24°C° 0 mm 2 mps 743 mmHg 56%
21:00 +24°C° 0 mm 3 mps 743 mmHg 56%
22:00 +24°C° 0 mm 3 mps 743 mmHg 56%
23:00 +24°C° 0 mm 3 mps 743 mmHg 55%

4 October, Sunday

Time Temperature Precipitation Wind Pressure Humidity
00:00 +24°C° 0 mm 3 mps 743 mmHg 54%
01:00 +22°C° 0 mm 3 mps 743 mmHg 53%
02:00 +24°C° 0 mm 3 mps 742 mmHg 51%
03:00 +24°C° 0 mm 3 mps 742 mmHg 49%
04:00 +23°C° 0 mm 4 mps 742 mmHg 47%
05:00 +24°C° 0 mm 3 mps 742 mmHg 47%
06:00 +25°C° 0 mm 3 mps 743 mmHg 47%
07:00 +25°C° 0 mm 3 mps 743 mmHg 47%
08:00 +28°C° 0 mm 3 mps 743 mmHg 41%
09:00 +30°C° 0 mm 4 mps 743 mmHg 35%
10:00 +34°C° 0 mm 5 mps 743 mmHg 28%
11:00 +34°C° 0 mm 4 mps 742 mmHg 28%
12:00 +35°C° 0 mm 4 mps 742 mmHg 28%
13:00 +35°C° 0 mm 4 mps 742 mmHg 28%
14:00 +34°C° 0 mm 3 mps 742 mmHg 32%
15:00 +33°C° 0 mm 3 mps 741 mmHg 36%
16:00 +31°C° 0 mm 2 mps 741 mmHg 40%
17:00 +30°C° 0 mm 3 mps 741 mmHg 41%
18:00 +29°C° 0 mm 4 mps 742 mmHg 41%
19:00 +28°C° 0 mm 5 mps 742 mmHg 42%
20:00 +28°C° 0 mm 4 mps 742 mmHg 42%
21:00 +28°C° 0 mm 4 mps 742 mmHg 43%
22:00 +27°C° 0 mm 4 mps 742 mmHg 44%
23:00 +27°C° 0 mm 4 mps 742 mmHg 43%
Show more